N999SP KTMB-KORL

Flight info

Callsign N999SP
Flight time N/A
Altitude 41000
Route WAPOM MUNGI1
Aircraft C700/M-VGDW/C

Departure

Time N/A
Airport Miami Executive Airport (KTMB)

Arrival

Time 2026-04-28 19:25
Airport Orlando Executive Airport (KORL)
Time Latitude Longitude Altitude Speed Heading
2026-04-28 18:45 26.18555 -80.29777 16016 ft 360 kts 320°
2026-04-28 18:45 26.20429 -80.31646 16017 ft 360 kts 320°
2026-04-28 18:45 26.22281 -80.33493 16382 ft 349 kts 320°
2026-04-28 18:46 26.24085 -80.35294 17136 ft 357 kts 320°
2026-04-28 18:46 26.25967 -80.37165 17964 ft 366 kts 320°
2026-04-28 18:46 26.27886 -80.39070 18772 ft 371 kts 320°
2026-04-28 18:46 26.29831 -80.40998 19543 ft 375 kts 320°
2026-04-28 18:47 26.31790 -80.42941 20344 ft 377 kts 320°
2026-04-28 18:47 26.33735 -80.44871 21092 ft 385 kts 320°
2026-04-28 18:47 26.35785 -80.46902 21144 ft 393 kts 320°
2026-04-28 18:47 26.37797 -80.48898 21144 ft 382 kts 320°
2026-04-28 18:48 26.39787 -80.50873 21144 ft 382 kts 320°
2026-04-28 18:48 26.41792 -80.52860 21148 ft 386 kts 320°
2026-04-28 18:48 26.43772 -80.54827 21145 ft 384 kts 320°
2026-04-28 18:48 26.45757 -80.56816 21144 ft 380 kts 320°
2026-04-28 18:49 26.47728 -80.58802 21146 ft 382 kts 320°
2026-04-28 18:49 26.48395 -80.59474 21147 ft 382 kts 320°
2026-04-28 18:49 26.51693 -80.62796 21152 ft 384 kts 320°
2026-04-28 18:49 26.53648 -80.64765 21152 ft 382 kts 320°
2026-04-28 18:50 26.55625 -80.66756 21150 ft 381 kts 320°
2026-04-28 18:50 26.57594 -80.68742 21151 ft 380 kts 320°
2026-04-28 18:50 26.59563 -80.70736 21152 ft 381 kts 320°
2026-04-28 18:50 26.61529 -80.72729 21152 ft 382 kts 320°
2026-04-28 18:51 26.63540 -80.74683 21147 ft 381 kts 325°
2026-04-28 18:51 26.65765 -80.76283 21154 ft 380 kts 332°
2026-04-28 18:51 26.68060 -80.77687 21157 ft 380 kts 334°
2026-04-28 18:51 26.70417 -80.79045 21158 ft 380 kts 335°
2026-04-28 18:52 26.72824 -80.80292 21159 ft 380 kts 338°
2026-04-28 18:52 26.75258 -80.81461 21158 ft 379 kts 339°
2026-04-28 18:52 26.77705 -80.82531 21156 ft 377 kts 341°
2026-04-28 18:52 26.80149 -80.83526 21155 ft 376 kts 341°
2026-04-28 18:53 26.82614 -80.84503 21155 ft 377 kts 342°
2026-04-28 18:53 26.85097 -80.85478 21156 ft 378 kts 342°
2026-04-28 18:53 26.87587 -80.86452 21157 ft 379 kts 342°
2026-04-28 18:53 26.90086 -80.87430 21161 ft 380 kts 342°
2026-04-28 18:54 26.92555 -80.88396 21159 ft 380 kts 342°
2026-04-28 18:54 26.95091 -80.89253 21156 ft 379 kts 346°
2026-04-28 18:54 26.97652 -80.89985 21154 ft 379 kts 347°
2026-04-28 18:54 27.00222 -80.90675 21151 ft 378 kts 348°
2026-04-28 18:55 27.02781 -80.91347 21143 ft 376 kts 348°
2026-04-28 18:55 27.04475 -80.91790 21139 ft 375 kts 348°
2026-04-28 18:55 27.07848 -80.92671 21134 ft 375 kts 348°
2026-04-28 18:55 27.10400 -80.93337 21017 ft 378 kts 348°
2026-04-28 18:56 27.12908 -80.93994 19319 ft 349 kts 348°
2026-04-28 18:56 27.15179 -80.94585 17556 ft 320 kts 349°
2026-04-28 18:56 27.17296 -80.95043 15859 ft 300 kts 351°
2026-04-28 18:56 27.19288 -80.95427 14334 ft 289 kts 352°
2026-04-28 18:57 27.21262 -80.95797 12756 ft 285 kts 352°
2026-04-28 18:57 27.23198 -80.96168 11242 ft 278 kts 352°
2026-04-28 18:57 27.25078 -80.96546 9813 ft 271 kts 352°
2026-04-28 18:57 27.26903 -80.96925 8370 ft 267 kts 352°
2026-04-28 18:58 27.28683 -80.97291 7976 ft 247 kts 352°
2026-04-28 18:58 27.30316 -80.97623 7953 ft 230 kts 352°
2026-04-28 18:58 27.31849 -80.97939 7957 ft 218 kts 352°
2026-04-28 18:58 27.33296 -80.98240 7962 ft 210 kts 352°
2026-04-28 18:59 27.34722 -80.98539 7965 ft 206 kts 352°
2026-04-28 18:59 27.36133 -80.98836 7960 ft 204 kts 352°
2026-04-28 18:59 27.37514 -80.99125 7963 ft 203 kts 352°
2026-04-28 18:59 27.38899 -80.99417 7965 ft 201 kts 352°
2026-04-28 19:00 27.40271 -80.99709 7968 ft 201 kts 352°
2026-04-28 19:00 27.41186 -80.99904 7970 ft 201 kts 352°
2026-04-28 19:00 27.43010 -81.00293 7997 ft 200 kts 352°
2026-04-28 19:00 27.43919 -81.00484 8002 ft 200 kts 352°
2026-04-28 19:01 27.45294 -81.00773 7998 ft 200 kts 352°
2026-04-28 19:01 27.46666 -81.01064 8000 ft 200 kts 352°
2026-04-28 19:01 27.48041 -81.01354 7998 ft 200 kts 352°
2026-04-28 19:01 27.49411 -81.01641 7995 ft 201 kts 352°
2026-04-28 19:02 27.50783 -81.01929 8000 ft 200 kts 352°
2026-04-28 19:02 27.52151 -81.02218 7997 ft 200 kts 352°
2026-04-28 19:02 27.53508 -81.02508 7995 ft 200 kts 352°
2026-04-28 19:02 27.54879 -81.02799 7995 ft 200 kts 352°
2026-04-28 19:03 27.56284 -81.03093 8024 ft 220 kts 352°
2026-04-28 19:03 27.57890 -81.03420 8020 ft 249 kts 352°
2026-04-28 19:03 27.59675 -81.03774 8010 ft 275 kts 352°
2026-04-28 19:03 27.61589 -81.04148 7999 ft 280 kts 352°
2026-04-28 19:04 27.63519 -81.04524 8002 ft 282 kts 352°
2026-04-28 19:04 27.65452 -81.04902 7997 ft 280 kts 352°
2026-04-28 19:04 27.67357 -81.05275 7990 ft 279 kts 352°
2026-04-28 19:04 27.69278 -81.05650 7989 ft 278 kts 352°
2026-04-28 19:05 27.71188 -81.06025 7998 ft 279 kts 352°
2026-04-28 19:05 27.73090 -81.06400 7996 ft 280 kts 352°
2026-04-28 19:05 27.75017 -81.06779 7994 ft 281 kts 352°
2026-04-28 19:05 27.76949 -81.07160 7993 ft 281 kts 352°
2026-04-28 19:06 27.78851 -81.07533 7987 ft 281 kts 352°
2026-04-28 19:06 27.80787 -81.07914 7991 ft 282 kts 352°
2026-04-28 19:06 27.82724 -81.08294 7984 ft 282 kts 352°
2026-04-28 19:06 27.84655 -81.08675 7991 ft 281 kts 352°
2026-04-28 19:07 27.86580 -81.09104 7986 ft 281 kts 345°
2026-04-28 19:07 27.88217 -81.10261 7980 ft 287 kts 316°
2026-04-28 19:07 27.89287 -81.12185 7997 ft 293 kts 297°
2026-04-28 19:07 27.90085 -81.14321 7998 ft 295 kts 294°
2026-04-28 19:08 27.90830 -81.16493 8000 ft 296 kts 293°
2026-04-28 19:08 27.91560 -81.18674 8003 ft 294 kts 293°
2026-04-28 19:08 27.92274 -81.20837 8001 ft 292 kts 293°
2026-04-28 19:08 27.92976 -81.22963 7999 ft 292 kts 293°
2026-04-28 19:09 27.93696 -81.25131 8005 ft 294 kts 293°
2026-04-28 19:09 27.94422 -81.27311 8003 ft 296 kts 293°
2026-04-28 19:09 27.95147 -81.29487 8001 ft 295 kts 293°
2026-04-28 19:09 27.95856 -81.31636 7999 ft 293 kts 293°
2026-04-28 19:10 27.96566 -81.33796 7997 ft 292 kts 293°
2026-04-28 19:10 27.97277 -81.35956 8007 ft 292 kts 293°
2026-04-28 19:10 27.97988 -81.38121 8011 ft 293 kts 293°
2026-04-28 19:10 27.98696 -81.40270 8005 ft 295 kts 293°
2026-04-28 19:11 27.99416 -81.42455 8017 ft 295 kts 293°
2026-04-28 19:11 28.00135 -81.44633 8016 ft 295 kts 293°
2026-04-28 19:11 28.00853 -81.46806 8013 ft 294 kts 293°
2026-04-28 19:11 28.01562 -81.48949 8014 ft 293 kts 293°
2026-04-28 19:12 28.02276 -81.51105 8016 ft 292 kts 293°
2026-04-28 19:12 28.02991 -81.53257 8020 ft 292 kts 293°
2026-04-28 19:12 28.03714 -81.55427 8016 ft 293 kts 293°
2026-04-28 19:12 28.04618 -81.57446 7988 ft 290 kts 312°
2026-04-28 19:13 28.06200 -81.58807 8000 ft 285 kts 336°
2026-04-28 19:13 28.08028 -81.59670 8013 ft 284 kts 342°
2026-04-28 19:13 28.09891 -81.60425 8013 ft 283 kts 343°
2026-04-28 19:13 28.11758 -81.61156 8011 ft 282 kts 343°
2026-04-28 19:14 28.13618 -81.61875 8025 ft 282 kts 343°
2026-04-28 19:14 28.15455 -81.62580 8029 ft 282 kts 343°
2026-04-28 19:14 28.17318 -81.63293 8022 ft 282 kts 343°
2026-04-28 19:14 28.19189 -81.64008 8030 ft 283 kts 343°
2026-04-28 19:15 28.21085 -81.64503 7956 ft 285 kts 352°
2026-04-28 19:15 28.23119 -81.64825 7056 ft 302 kts 354°
2026-04-28 19:15 28.25250 -81.65098 6120 ft 312 kts 355°
2026-04-28 19:15 28.26650 -81.65271 5478 ft 285 kts 355°
2026-04-28 19:16 28.29123 -81.65592 4126 ft 265 kts 355°
2026-04-28 19:16 28.30945 -81.65821 3163 ft 262 kts 356°
2026-04-28 19:16 28.32745 -81.66057 2217 ft 258 kts 355°
2026-04-28 19:16 28.34452 -81.66273 2027 ft 237 kts 355°
2026-04-28 19:17 28.36047 -81.66478 2009 ft 223 kts 356°
2026-04-28 19:17 28.37554 -81.66688 2020 ft 213 kts 356°
2026-04-28 19:17 28.39014 -81.66885 2001 ft 209 kts 356°
2026-04-28 19:17 28.40430 -81.67075 2013 ft 207 kts 355°
2026-04-28 19:18 28.41838 -81.67080 1989 ft 198 kts 20°
2026-04-28 19:18 28.42908 -81.66174 2019 ft 193 kts 54°
2026-04-28 19:18 28.43594 -81.64851 2044 ft 203 kts 63°
2026-04-28 19:18 28.44277 -81.63344 2052 ft 229 kts 63°
2026-04-28 19:19 28.44996 -81.61741 2022 ft 222 kts 62°
2026-04-28 19:19 28.45691 -81.60219 2020 ft 211 kts 64°
2026-04-28 19:19 28.46344 -81.58782 2002 ft 200 kts 63°
2026-04-28 19:19 28.46971 -81.57403 2017 ft 192 kts 63°
2026-04-28 19:20 28.47563 -81.56081 2010 ft 180 kts 63°
2026-04-28 19:20 28.48086 -81.54900 1987 ft 163 kts 64°
2026-04-28 19:20 28.48623 -81.53684 2017 ft 180 kts 63°
2026-04-28 19:20 28.49174 -81.52436 2012 ft 177 kts 63°
2026-04-28 19:21 28.49709 -81.51143 1665 ft 182 kts 68°
2026-04-28 19:21 28.50151 -81.49812 1138 ft 176 kts 70°
2026-04-28 19:21 28.50557 -81.48584 1089 ft 166 kts 69°
2026-04-28 19:21 28.50940 -81.47342 1112 ft 146 kts 71°
2026-04-28 19:22 28.51125 -81.46344 1072 ft 119 kts 82°
2026-04-28 19:22 28.51218 -81.45707 952 ft 135 kts 74°
2026-04-28 19:22 28.51695 -81.44251 1275 ft 158 kts 68°
2026-04-28 19:22 28.51920 -81.43132 1274 ft 132 kts 81°
2026-04-28 19:23 28.51975 -81.42101 1073 ft 133 kts 87°
2026-04-28 19:23 28.52021 -81.41049 1067 ft 133 kts 83°
2026-04-28 19:23 28.52175 -81.39955 1071 ft 141 kts 79°
2026-04-28 19:23 28.52388 -81.38962 1082 ft 124 kts 70°
2026-04-28 19:24 28.52690 -81.37984 976 ft 145 kts 67°
2026-04-28 19:24 28.53070 -81.36969 873 ft 129 kts 65°
2026-04-28 19:24 28.53447 -81.36037 550 ft 130 kts 65°
2026-04-28 19:24 28.53833 -81.35038 408 ft 139 kts 65°
2026-04-28 19:25 28.54226 -81.34058 211 ft 131 kts 65°
2026-04-28 19:25 28.54538 -81.33257 115 ft 63 kts 66°
2026-04-28 19:25 28.54646 -81.32974 114 ft 28 kts 66°
2026-04-28 19:25 28.54703 -81.32836 112 ft 14 kts 58°
2026-04-28 19:26 28.54768 -81.32774 114 ft 12 kts 33°
2026-04-28 19:26 28.54831 -81.32722 112 ft 12 kts 30°
2026-04-28 19:26 28.54852 -81.32714 112 ft 0 kts 11°
2026-04-28 19:27 28.54872 -81.32718 111 ft 6 kts 329°
2026-04-28 19:27 28.54876 -81.32764 113 ft 7 kts 248°
2026-04-28 19:27 28.54847 -81.32844 114 ft 16 kts 246°
2026-04-28 19:27 28.54788 -81.32996 113 ft 24 kts 246°
2026-04-28 19:28 28.54728 -81.33175 114 ft 24 kts 261°
2026-04-28 19:28 28.54708 -81.33374 112 ft 27 kts 264°
2026-04-28 19:28 28.54692 -81.33553 113 ft 12 kts 266°
2026-04-28 19:28 28.54716 -81.33648 114 ft 13 kts 309°
2026-04-28 19:29 28.54721 -81.33730 113 ft 11 kts 227°
2026-04-28 19:29 28.54713 -81.33758 113 ft 6 kts 267°
2026-04-28 19:29 28.54738 -81.33735 113 ft 13 kts 58°
2026-04-28 19:29 28.54806 -81.33647 112 ft 16 kts 40°
2026-04-28 19:30 28.54879 -81.33590 114 ft 11 kts 58°
2026-04-28 19:30 28.54879 -81.33544 114 ft 0 kts 49°